Flag for United Kingdom Weather past 2 weeks in Blackpool, England, United Kingdom

Now
63 °F

Passing clouds.


Feels Like: 63 °F
Forecast: 60 / 65 °F
Wind: 6 mph from Northwest

Location: Blackpool Airport

Current Time: Jul 29, 2014 at 6:58:50 AM

Latest Report: Jul 29, 2014 at 6:20 AM


Visibility: N/A

Pressure: 30.04 "Hg

Humidity: 83%

Dew point: 57 °F

Location of BlackpoolLocation

Historic Weather in Blackpool — Graph

°F

Blackpool temperature yesterday

Maximum temperature yesterday: 70 °F (at 1:50 PM)
Minimum temperature yesterday: 59 °F (at 6:20 AM)
Average temperature yesterday: 65 °F

Past Weeks' High & Low Weather Summary

 TemperatureHumidityPressure
High84 °F (Jul 25, 4:20 PM)100% (Jul 14, 9:20 PM)30.27 "Hg (Jul 14, 9:20 PM)
Low55 °F (Jul 17, 6:20 AM)33% (Jul 25, 4:20 PM)29.74 "Hg (Jul 19, 1:50 PM)
Average68 °F74%30.03 "Hg
* Reported Jul 13 9:50 PM — Jul 28 9:50 PM, Blackpool, Weather by CustomWeather, © 2014

Note: Actual official high and low records may vary slightly from our data, if they occured in-between our weather recording intervals... More about our weather records

Advertising

Blackpool weather history for previous 24 hours

 ConditionsComfort  
Time TempWeatherWind HumidityBarometerVisibility
9:50 PM
Jul 28
64 °FSunny.7 mph78%30.09 "Hg10 mi
9:20 PM64 °FSunny.8 mph78%30.07 "Hg10 mi
8:50 PM64 °FSunny.8 mph78%30.07 "Hg10 mi
8:20 PM64 °FPassing clouds.8 mph78%30.07 "HgN/A
7:50 PM66 °FSunny.13 mph68%30.07 "Hg10 mi
7:20 PM66 °FSunny.13 mph73%30.07 "Hg10 mi
6:50 PM66 °FPassing clouds.12 mph73%30.07 "HgN/A
6:20 PM66 °FPassing clouds.14 mph73%30.07 "HgN/A
5:50 PM66 °FPassing clouds.14 mph78%30.07 "HgN/A
4:50 PM68 °FPassing clouds.13 mph73%30.07 "HgN/A
4:20 PM68 °FPassing clouds.14 mph73%30.07 "HgN/A
3:50 PM68 °FPassing clouds.15 mph73%30.07 "HgN/A
3:20 PM66 °FPassing clouds.13 mph78%30.07 "HgN/A
2:50 PM68 °FScattered clouds.13 mph69%30.07 "HgN/A
2:20 PM70 °FScattered clouds.10 mph64%30.07 "HgN/A
1:50 PM70 °FPassing clouds.8 mph69%30.07 "HgN/A
1:20 PM68 °FPassing clouds.8 mph73%30.07 "HgN/A
12:50 PM66 °FScattered clouds.8 mph73%30.07 "HgN/A
12:20 PM66 °FPartly sunny.8 mph73%30.07 "HgN/A
11:50 AM66 °FPartly sunny.8 mph73%30.07 "HgN/A
11:20 AM66 °FPartly sunny.2 mph68%30.07 "HgN/A
10:50 AM66 °FPartly sunny.7 mph73%30.04 "HgN/A
10:20 AM66 °FPartly sunny.7 mph78%30.04 "HgN/A
9:50 AM63 °FBroken clouds.7 mph88%30.04 "HgN/A
9:20 AM63 °FBroken clouds.8 mph88%30.04 "HgN/A
8:50 AM63 °FScattered clouds.9 mph94%30.04 "HgN/A
8:20 AM61 °FScattered clouds.9 mph94%30.04 "HgN/A
7:50 AM61 °FPassing clouds.8 mph94%30.01 "HgN/A
7:20 AM61 °FPassing clouds.3 mph94%30.01 "HgN/A
6:50 AM59 °FPassing clouds.3 mph100%30.01 "HgN/A
6:20 AM59 °FScattered clouds.3 mph94%30.01 "HgN/A
Weather by CustomWeather, © 2014

See weather overviewHow to use our weather pages